sat.trackr.live / text

‹ back to catalog

STARLINK-32545

NORAD 62135 · 2024-222X

PAYLOAD ACTIVE UNKNOWN

§ Identity

Operator
Country
US
Launch date
2024-11-27
Launch site
AFETR
Launch vehicle
Mass (kg)
RCS (m²)

Purposes: comms

External: N2YO · Heavens-Above · Gunter

§ Orbital elements

Epoch: 2026-05-25T04:29:28.423392Z

Period
94.26 min
Inclination
43.0013°
Eccentricity
0.0001366
Mean motion
15.27620727 rev/d
Perigee alt
482.0 km
Apogee alt
483.9 km
Semi-major
6,861.1 km
B*
7.2414e-4
RAAN
64.5598°
Arg perigee
268.0272°
Mean anomaly
92.0424°
Rev number
8,449

§ Raw data

STARLINK-325451 62135U 24222X   26145.18713453  .00019743  00000+0  72414-3 0  99932 62135  43.0013  64.5598 0001366 268.0272  92.0424 15.27620727 84495

JSON: /api/v1/satellites/62135 · /tle

For live sub-satellite position, see the globe view (requires WebGL).

§ Visibility from observer

Set your observer location to see the next 7 days of passes ≥ 10°. The values pass through the URL so the page stays shareable.

No JS? Fill the form by hand. The geolocation button needs JavaScript.